Simultaneous Nadir Overpasses (SNOs) Predictions

Prediction of SNOs between LANDSAT-8 and NOAA-19 Satellite Orbit:

Table of predicted SNOs for the next 14.0 days since TLE Epoch: 7/26/2025
Index Date (LANDSAT-8) Time (LANDSAT-8) Lat,Lon (LANDSAT-8) SZA (LANDSAT-8 ) Date (NOAA-19) Time (NOAA-19) Lat,Lon (NOAA-19) SZA (NOAA-19 ) Distance(km) Time Diff (sec)
1 07/27/2025 18:52:48 77.45, -89.92 58.65 07/27/2025 18:52:06 77.45, -89.96 58.64 1.07 42
2 07/27/2025 19:42:04 -77.96, 79.90 120.74 07/27/2025 19:42:48 -77.95, 79.91 120.74 0.30 44
3 07/30/2025 02:05:23 -77.58, -17.53 120.66 07/30/2025 02:05:00 -77.58, -17.50 120.66 0.86 23
4 07/30/2025 02:54:39 78.02, 152.02 59.88 07/30/2025 02:55:51 78.02, 152.04 59.90 0.52 72
5 08/01/2025 09:17:59 77.58, 54.31 59.92 08/01/2025 09:18:05 77.57, 54.23 59.91 2.13 6
6 08/03/2025 15:41:16 77.26, -42.77 60.13 08/03/2025 15:40:15 77.27, -42.69 60.13 2.23 61
7 08/03/2025 16:30:35 -77.65, 126.44 119.41 08/03/2025 16:31:00 -77.63, 126.34 119.42 2.65 25
8 08/05/2025 22:53:53 -77.27, 29.13 119.24 08/05/2025 22:53:11 -77.28, 29.16 119.24 1.00 42
9 08/05/2025 23:43:08 77.75,-161.24 61.34 08/05/2025 23:44:02 77.75,-161.29 61.35 1.27 54
10 08/08/2025 06:06:27 77.32, 101.18 61.47 08/08/2025 06:06:15 77.31, 101.09 61.46 2.41 12



Historial Predications of SNOs between LANDSAT-8 and NOAA-19
